Vereeniging, South Africa

6:03 PM SAST on August 16, 2017 (GMT +0200)
Vereeniging

Weather History for FAVV - August, 2013

Change the Weather History Date:

Thursday, August 8, 2013

  Actual Average Record
Temperature  
Mean Temperature 56 °F -  
Max Temperature 72 °F - - ()
Min Temperature 41 °F - - ()
Degree Days  
Heating Degree Days 8    
Growing Degree Days 6 (Base 50)    
Moisture  
Dew Point 30 °F    
Average Humidity 37    
Maximum Humidity 70    
Minimum Humidity 9    
Precipitation  
Precipitation 0.00 in - - ()
Sea Level Pressure  
Sea Level Pressure 30.04 in    
Wind  
Wind Speed 8 mph ()    
Max Wind Speed 16 mph    
Max Gust Speed 30 mph    
T = Trace of Precipitation, MM = Missing Value Source: Averaged Metar Reports

Daily Weather History Graph

Daily Weather History Graph

Search for Another Location

Airport or City:

Trip Planner

Search our weather history database for the weather conditions in past years. The results will help you decide how hot, cold, wet, or windy it might be!

Date:

Astronomy

Aug. 08, 2013 Rise Set
Actual Time 6:41 AM SAST 5:46 PM SAST
Civil Twilight 6:17 AM SAST 6:10 PM SAST
Nautical Twilight 5:50 AM SAST 6:37 PM SAST
Astronomical Twilight 5:23 AM SAST 7:04 PM SAST
Moon 7:18 AM SAST (8/8) 7:16 PM SAST (8/8)
Length of Visible Light 11h 52m
Length of Day
11h 04m
New Moon, 2% of the Moon is Illuminated
Aug 8
New Moon
Aug 14
First Quarter
Aug 21
Full
Aug 28
Last Quarter
Sep 5
New

Hourly Weather History & Observations

Time (SAST) Temp. Windchill Dew Point Humidity Pressure Visibility Wind Dir Wind Speed Gust Speed Precip Events Conditions
12:00 AM 55.4 °F - 32.0 °F 41% 30.04 in - North 12.7 mph - N/A   Unknown
1:00 AM 55.4 °F - 32.0 °F 41% 30.04 in - North 12.7 mph - N/A   Unknown
2:00 AM 56 °F - 32 °F 28%  in - North 12.7 mph - -  
2:00 AM 55.4 °F - 32.0 °F 41% 30.01 in - North 12.7 mph - N/A   Unknown
3:00 AM 53.6 °F - 32.0 °F 44% 30.01 in - North 9.2 mph - N/A   Unknown
4:00 AM 51.8 °F - 32.0 °F 47% 30.01 in - North 10.4 mph - N/A   Unknown
5:00 AM 50.0 °F - 32.0 °F 50% 30.01 in - SW 5.8 mph - N/A   Unknown
6:00 AM 44.6 °F 43.1 °F 32.0 °F 61% 30.04 in - WNW 3.5 mph - N/A   Unknown
7:00 AM 41.0 °F 39.0 °F 32.0 °F 70% 30.09 in - WNW 3.5 mph - N/A   Unknown
8:00 AM 42.8 °F 40.1 °F 32.0 °F 66% 30.09 in - West 4.6 mph - N/A   Unknown
9:00 AM 48.2 °F - 32.0 °F 54% 30.12 in - WSW 3.5 mph - N/A   Unknown
10:00 AM 53.6 °F - 32.0 °F 44% 30.12 in - ESE 5.8 mph - N/A   Unknown
11:00 AM 59.0 °F - 32.0 °F 36% 30.09 in - NE 3.5 mph - N/A   Unknown
12:00 PM 66.2 °F - 32.0 °F 28% 30.04 in - NNE 5.8 mph - N/A   Unknown
1:00 PM 71.6 °F - 28.4 °F 20% 30.01 in - NW 16.1 mph - N/A   Unknown
2:00 PM 72 °F - 26 °F 9%  in - NNW 16.1 mph - -  
2:00 PM 71.6 °F - 26.6 °F 19% 29.98 in - NNW 16.1 mph 29.9 mph N/A   Unknown
3:00 PM 71.6 °F - 28.4 °F 20% 29.98 in - NW 12.7 mph 28.8 mph N/A   Unknown
4:00 PM 69.8 °F - 28.4 °F 21% 29.98 in - NW 12.7 mph 25.3 mph N/A   Unknown
5:00 PM 68.0 °F - 24.8 °F 20% 29.98 in - NW 11.5 mph - N/A   Unknown
6:00 PM 66.2 °F - 24.8 °F 21% 30.01 in - NW 8.1 mph - N/A   Unknown
7:00 PM 60.8 °F - 26.6 °F 27% 30.04 in - NW 5.8 mph - N/A   Unknown
8:00 PM 60.8 °F - 28.4 °F 29% 30.04 in - West 4.6 mph - N/A   Unknown
9:00 PM 55.4 °F - 30.2 °F 38% 30.09 in - SW 10.4 mph - N/A   Unknown
10:00 PM 51.8 °F - 30.2 °F 44% 30.09 in - WSW 4.6 mph - N/A   Unknown
11:00 PM 46.4 °F 45.2 °F 30.2 °F 53% 30.12 in - West 3.5 mph - N/A   Unknown